GFSNIL_sfc_rhum_222.txt.gz
RH
91 93 94 95 95 96 96 95 95 96 94 94 94 95 96 96 97 96 97 96 96 96
95 95 96 96 96 96 95 97 97 97 97 96 96 96 95 97 97 98 97 96 96 96
96 96 97 98 98 98 97 98 98 99 98 98 98 98 98 97 96 99 99 98 99 98
97 98 98 98 98 98 98 99 99 98 99 99 98 99 98 99 99 99 99 99 99 99
98 98 99 99 98 98 99 99 99 99 99 99 99 99 98 99 99 99 99 99 99 99
99 99 99 99 99 99 99 99 99 99 99 99 99 99 99 99 99 99 98 98 98 99
98 97 98 97 98 99 99 99 99 99 99 99 99 99 99 99 99 98 99 99 98 98
94 93 95 98 98 99 99 99 99 99 99 99 99 99 99 98 98 98 98 98 98 98
98 97 98 98 99 99 99 99 99 99 99 99 99 100 100 98 97 97 97 98 99 97
97 98 98 99 99 99 99 99 99 99 98 99 98 100 99 98 95 96 95 93 92 95
98 98 98 98 99 99 98 98 98 98 98 98 97 96 95 93 90 94 97 97 96 96
96 98 98 98 98 98 98 97 97 95 94 95 100 95 94 92 96 100 100 100 100 100
94 97 98 98 98 97 93 95 96 97 96 99 99 99 99 98 100 100 100 100 100 99
96 96 96 97 94 94 95 95 96 96 97 99 99 100 99 98 98 100 100 100 100 100

GFSNIL_sfc_rhum_225.txt.gz
RH
75 69 69 71 76 82 82 84 81 84 83 82 81 82 84 86 89 89 93 88 88 88
79 77 76 76 78 80 80 81 82 83 85 82 82 83 86 93 94 94 95 94 94 93
80 78 76 80 81 79 80 80 81 82 84 87 89 90 93 95 94 96 96 96 96 95
83 82 82 82 80 80 81 80 79 80 86 88 92 94 96 96 96 96 96 98 97 97
84 83 84 83 82 84 83 82 84 88 91 94 94 95 98 97 97 97 98 98 99 99
84 85 85 85 85 88 88 93 95 95 96 96 97 97 98 98 98 99 99 99 99 98
83 82 87 88 87 94 93 96 95 93 93 97 97 98 98 98 98 98 99 99 98 99
88 88 89 89 90 94 95 91 89 96 98 98 98 99 97 96 97 98 98 98 98 98
88 86 88 91 94 95 96 98 98 98 97 98 99 100 100 97 96 95 96 98 98 97
92 93 93 94 96 98 98 98 98 98 98 98 98 100 100 100 95 96 96 97 96 95
94 94 96 98 98 98 98 98 98 98 97 97 98 99 98 96 92 93 95 96 94 87
94 96 94 97 98 97 98 98 98 98 98 97 99 92 91 86 90 97 100 100 100 100
86 92 93 94 97 98 96 98 98 96 95 96 95 93 91 86 100 100 100 100 100 99
88 92 93 97 96 97 98 98 98 98 96 94 93 96 94 91 92 100 100 100 100 100

GFSNIL_sfc_rhum_228.txt.gz
RH
54 49 49 49 46 52 53 57 63 68 66 68 66 67 67 69 72 74 78 80 79 77
55 56 51 53 55 51 56 54 65 68 69 68 69 70 75 80 83 83 87 89 88 89
52 53 54 53 56 56 58 61 65 68 68 68 70 73 80 86 85 89 92 92 93 94
51 52 55 56 56 59 62 62 63 65 67 70 77 79 85 87 88 92 94 96 95 93
54 54 58 59 58 63 62 63 62 62 64 70 80 83 86 89 95 95 96 94 96 95
60 60 60 60 61 62 63 64 63 63 70 78 81 82 86 86 92 91 91 91 94 97
61 61 62 61 62 65 65 65 69 73 77 81 82 83 85 91 96 97 97 99 98 98
59 60 62 65 67 69 72 69 70 79 83 87 88 88 92 94 96 96 97 98 96 97
68 67 71 72 71 81 84 83 86 93 94 95 98 100 100 96 95 95 97 97 98 97
75 77 80 77 79 85 92 95 96 92 93 97 97 100 100 100 93 93 95 96 95 95
70 71 76 81 84 94 95 97 97 97 96 96 96 100 100 100 93 95 96 96 95 96
72 73 81 84 88 89 94 96 97 96 95 96 99 99 97 92 94 99 100 100 100 100
69 80 85 88 93 94 94 96 96 96 97 99 97 96 94 88 100 100 100 100 100 99
70 80 83 88 93 94 96 97 97 97 98 97 94 94 92 90 86 99 100 100 100 100

GFSNIL_sfc_rhum_231.txt.gz
RH
57 50 51 50 44 47 48 52 58 67 67 68 68 69 69 66 66 70 71 74 70 63
54 58 52 54 53 46 51 47 58 64 68 68 68 68 70 67 69 69 74 76 79 81
49 52 54 53 53 52 52 53 54 62 65 66 67 67 69 71 73 78 82 84 87 87
45 49 51 53 52 52 55 53 52 58 63 64 66 68 73 78 82 84 85 88 90 89
46 47 51 53 54 55 54 53 54 55 59 60 62 66 75 85 83 87 90 91 95 94
48 49 51 53 56 54 56 56 56 56 60 60 66 76 77 78 88 90 86 90 96 96
45 48 52 53 56 58 58 59 59 60 60 62 68 81 81 86 90 91 91 92 90 93
47 46 50 56 57 60 62 60 60 62 62 64 75 81 86 88 92 93 97 98 96 98
53 48 52 57 62 66 66 66 67 65 68 78 91 100 100 95 89 91 94 97 97 97
64 65 63 72 80 86 87 83 74 77 83 90 96 100 100 100 86 91 94 96 97 98
60 77 80 80 87 94 93 92 92 92 87 89 95 100 100 100 90 95 97 97 95 95
58 64 73 83 88 90 95 95 95 92 92 90 98 100 100 95 96 99 100 100 100 100
56 63 72 73 83 92 90 90 98 97 90 98 97 100 99 94 100 100 100 100 100 100
49 57 72 77 84 89 95 95 98 98 99 98 97 98 98 99 96 99 100 100 100 100

GFSNIL_sfc_rhum_234.txt.gz
RH
62 58 58 59 55 58 58 61 66 71 70 72 74 75 76 75 77 73 81 77 77 75
54 64 60 62 61 58 60 58 68 72 74 73 74 76 77 78 77 79 78 82 82 80
49 56 63 63 64 64 59 65 63 70 74 75 75 77 79 79 79 79 82 81 86 85
50 53 65 68 65 64 65 59 63 67 71 75 76 78 80 81 80 82 82 86 86 88
62 61 58 63 67 66 66 62 59 61 67 72 75 77 80 81 80 76 79 81 86 95
67 64 63 64 64 63 64 63 63 62 66 70 75 77 79 78 77 80 80 85 95 94
64 66 64 61 60 67 65 65 64 64 64 70 73 75 77 79 83 87 88 91 94 94
63 65 64 67 68 65 71 66 64 66 68 70 74 77 81 84 88 91 95 98 98 97
61 66 70 70 73 78 75 73 72 70 72 75 80 100 100 94 93 96 98 99 100 99
59 70 77 76 81 84 81 84 79 80 77 78 89 100 100 100 96 98 98 98 99 99
58 68 83 87 88 92 94 94 94 95 95 99 100 100 100 100 96 97 98 98 98 98
59 70 76 91 92 94 96 97 97 97 98 99 100 100 100 100 98 99 100 100 100 99
54 61 81 83 92 96 96 96 99 99 98 100 99 100 100 99 100 100 100 100 100 100
50 61 67 83 89 96 98 98 99 100 100 99 99 99 100 100 98 99 100 100 100 100

GFSNIL_sfc_rhum_237.txt.gz
RH
58 59 58 58 59 62 64 64 66 70 67 72 75 79 77 78 76 74 78 72 78 73
60 61 63 61 61 62 65 65 68 73 71 71 75 77 82 80 79 78 80 80 77 84
70 72 65 65 69 66 67 71 68 74 74 71 75 79 80 83 80 84 83 79 90 83
60 61 69 79 69 68 77 66 77 75 74 76 76 78 84 82 84 86 86 89 84 91
68 68 65 76 87 77 76 79 71 71 76 76 80 80 83 87 85 88 89 86 92 87
71 73 72 72 77 85 79 72 78 71 77 79 83 83 84 85 87 88 87 84 86 85
66 72 79 75 72 73 81 80 76 76 72 78 80 84 84 86 88 89 88 81 82 81
60 68 77 80 81 79 76 75 79 76 76 80 81 85 87 87 89 89 87 87 88 87
57 65 74 81 84 85 89 86 88 84 79 83 84 99 100 93 89 89 88 93 94 97
55 59 66 77 88 89 91 92 92 91 89 86 84 100 100 100 88 92 92 95 99 100
55 62 71 77 88 92 93 94 94 94 93 92 90 100 100 100 89 96 97 98 98 98
54 59 65 76 87 93 95 96 97 97 97 97 99 100 100 100 97 99 99 99 100 99
51 60 67 71 84 90 96 97 98 98 98 100 100 100 100 100 100 100 100 100 100 100
54 60 68 75 81 88 95 98 99 100 99 99 100 100 100 100 98 99 100 100 100 100

GFSNIL_sfc_rhum_243.txt.gz
RH
68 64 64 67 69 72 74 75 77 82 78 80 79 81 81 80 81 78 81 75 76 73
71 69 70 74 82 79 76 74 82 86 85 82 82 82 82 84 82 82 82 81 78 78
75 73 73 81 82 86 88 85 87 89 86 84 82 83 85 85 83 85 86 82 85 82
82 85 86 88 86 82 83 78 76 78 79 81 83 83 87 87 85 89 87 88 87 88
87 88 92 92 92 94 93 92 85 81 83 81 83 83 85 86 86 88 91 89 92 89
85 85 82 79 87 87 89 92 94 93 92 88 86 85 85 84 84 86 87 88 90 90
71 78 84 85 86 86 85 85 88 91 94 93 92 91 88 88 89 88 88 88 89 90
53 58 64 70 76 83 87 89 90 91 91 93 95 95 95 95 94 93 92 91 91 91
52 54 58 64 73 75 74 80 90 92 93 94 96 100 100 100 96 95 96 94 92 91
52 54 55 52 56 73 71 84 82 87 92 94 94 100 100 100 99 98 94 94 93 93
54 54 54 60 61 64 64 80 86 86 87 93 94 100 100 100 99 99 98 96 95 94
54 54 54 57 64 65 72 70 80 86 88 90 91 100 100 100 100 100 99 99 97 96
53 53 57 59 60 70 77 72 77 82 88 94 99 100 100 100 100 99 100 100 100 100
58 60 58 61 64 65 70 71 81 87 88 92 99 99 100 100 99 100 100 100 100 100

GFSNIL_sfc_rhum_246.txt.gz
RH
64 63 62 64 69 73 75 76 80 82 79 81 80 82 85 84 84 83 87 83 83 78
72 71 68 71 76 75 77 79 89 88 86 86 86 87 86 86 86 85 86 86 84 82
78 77 78 83 85 81 82 81 88 93 91 87 89 86 89 87 86 88 88 86 88 87
92 89 87 88 90 92 94 90 85 85 89 89 88 88 90 90 90 92 90 91 90 90
72 90 96 93 93 97 96 94 93 92 93 92 95 96 94 93 92 92 93 91 93 91
56 60 73 87 92 94 98 98 98 97 92 94 96 94 93 92 90 91 91 90 92 90
57 60 59 60 70 85 88 91 95 97 90 92 94 94 92 91 92 92 92 91 90 90
52 50 52 56 59 66 68 76 90 93 95 95 96 97 96 97 96 96 95 94 93 92
52 52 55 54 55 59 62 64 83 81 90 92 95 100 100 100 99 98 98 98 95 94
53 55 55 52 54 61 64 70 74 85 86 90 91 100 100 100 99 99 98 97 97 97
58 58 55 55 56 61 62 69 74 75 84 87 90 100 100 100 99 99 99 98 97 99
64 64 63 62 62 60 64 66 68 65 69 78 84 100 100 100 99 98 98 98 99 98
66 67 69 66 66 68 66 64 69 67 67 73 87 100 100 100 99 100 100 100 100 100
66 68 67 70 69 69 71 71 73 73 74 74 76 86 100 100 98 99 100 100 100 100